TimeCST,TemperatureF,Dew PointF,Humidity,Sea Level PressureIn,VisibilityMPH,Wind Direction,Wind SpeedMPH,Gust SpeedMPH,PrecipitationIn,Events,Conditions,WindDirDegrees,DateUTC
12:54 AM,34.0,28.9,82,30.13,10.0,SSE,6.9,-,N/A,,Clear,150,2012-11-08 06:54:00
1:54 AM,35.1,30.0,82,30.12,10.0,SSE,9.2,-,N/A,,Clear,150,2012-11-08 07:54:00
2:54 AM,35.1,30.0,82,30.11,10.0,SSE,10.4,-,N/A,,Clear,150,2012-11-08 08:54:00
3:54 AM,35.1,30.0,82,30.10,10.0,SSE,9.2,-,N/A,,Clear,160,2012-11-08 09:54:00
4:54 AM,35.1,30.9,85,30.09,10.0,South,10.4,-,N/A,,Clear,170,2012-11-08 10:54:00
5:54 AM,35.1,30.9,85,30.08,10.0,SSE,11.5,-,N/A,,Clear,160,2012-11-08 11:54:00
6:54 AM,35.1,30.9,85,30.07,10.0,SSE,10.4,-,N/A,,Clear,150,2012-11-08 12:54:00
7:54 AM,37.0,32.0,82,30.08,10.0,SSE,11.5,-,N/A,,Clear,150,2012-11-08 13:54:00
8:54 AM,42.1,35.1,76,30.08,10.0,SSE,12.7,-,N/A,,Partly Cloudy,160,2012-11-08 14:54:00
9:54 AM,46.9,36.0,66,30.07,10.0,South,13.8,-,N/A,,Partly Cloudy,170,2012-11-08 15:54:00
10:54 AM,52.0,37.0,57,30.05,10.0,South,15.0,-,N/A,,Clear,170,2012-11-08 16:54:00
11:54 AM,55.9,36.0,47,30.02,10.0,South,13.8,-,N/A,,Clear,180,2012-11-08 17:54:00
12:54 PM,59.0,36.0,42,29.98,10.0,SSE,15.0,-,N/A,,Clear,150,2012-11-08 18:54:00
1:54 PM,61.0,36.0,39,29.95,10.0,SE,13.8,-,N/A,,Clear,140,2012-11-08 19:54:00
2:54 PM,62.1,36.0,38,29.93,10.0,SSE,15.0,-,N/A,,Clear,160,2012-11-08 20:54:00
3:54 PM,61.0,36.0,39,29.93,10.0,SSE,16.1,-,N/A,,Clear,160,2012-11-08 21:54:00
4:54 PM,57.0,36.0,45,29.94,10.0,SSE,9.2,-,N/A,,Clear,150,2012-11-08 22:54:00
5:54 PM,55.0,36.0,49,29.95,10.0,SE,8.1,-,N/A,,Clear,140,2012-11-08 23:54:00
6:54 PM,54.0,36.0,51,29.97,10.0,SE,8.1,-,N/A,,Clear,140,2012-11-09 00:54:00
7:54 PM,52.0,37.0,57,29.97,10.0,SE,6.9,-,N/A,,Clear,130,2012-11-09 01:54:00
8:54 PM,51.1,37.0,59,29.96,10.0,SE,8.1,-,N/A,,Clear,130,2012-11-09 02:54:00
9:54 PM,50.0,37.0,61,29.96,10.0,ESE,8.1,-,N/A,,Clear,120,2012-11-09 03:54:00
10:54 PM,48.0,37.0,66,29.94,10.0,SE,6.9,-,N/A,,Clear,130,2012-11-09 04:54:00
11:54 PM,48.0,37.0,66,29.94,10.0,ESE,6.9,-,N/A,,Clear,120,2012-11-09 05:54:00